| time (UTC) | temp F | wind direction | speed knots | gust knots | rain 1hr in | rain 24hr in | rain mn in | humidity % | barometer mb |
| 20260502151844 | 42 | 291 | 1.7 | 6.1 | 0.00 | 0.00 | 0.00 | 39 | 1015.3 |
| 20260502151245 | 42 | 288 | 1.7 | 4.3 | 0.00 | 0.00 | 0.00 | 39 | 1015.2 |
| 20260502150645 | 42 | 18 | 0.9 | 6.1 | 0.00 | 0.00 | 0.00 | 40 | 1015.3 |
| 20260502123644 | 38 | 273 | 0.0 | 4.3 | 0.00 | 0.00 | 0.00 | 68 | 1015.5 |
| 20260502123044 | 38 | 283 | 0.0 | 4.3 | 0.00 | 0.00 | 0.00 | 70 | 1015.6 |
| 20260502122444 | 38 | 274 | 0.0 | 4.3 | 0.00 | 0.00 | 0.00 | 73 | |
| 20260502121844 | 38 | 334 | 0.0 | 4.3 | 0.00 | 0.00 | 0.00 | 75 | 1015.4 |
| 20260502121244 | 38 | 5 | 0.0 | 4.3 | 0.00 | 0.00 | 0.00 | 78 | 1015.5 |
| 20260502120644 | 38 | 336 | 0.9 | 6.1 | 0.00 | 0.00 | 0.00 | 82 | 1015.5 |
| 20260502115444 | 37 | 269 | 0.0 | 1.7 | 0.00 | 0.00 | 0.00 | 91 | 1015.4 |
| 20260502114844 | 37 | 282 | 0.0 | 1.7 | 0.00 | 0.00 | 0.00 | 92 | 1015.5 |
| 20260502114244 | 36 | 272 | 0.0 | 1.7 | 0.00 | 0.00 | 0.00 | 90 | 1015.5 |
| 20260502113644 | 35 | 0 | 0.0 | 0.0 | 0.00 | 0.00 | 0.00 | 90 | 1015.6 |
| 20260502113044 | 34 | 0 | 0.0 | 0.0 | 0.00 | 0.00 | 0.00 | 91 | 1015.4 |
| 20260502112444 | 33 | 0 | 0.0 | 0.0 | 0.00 | 0.00 | 0.00 | 90 | 1015.5 |
| 20260502111844 | 33 | 0 | 0.0 | 0.0 | 0.00 | 0.00 | 0.00 | 90 | |
| 20260502111244 | 33 | 0 | 0.0 | 0.0 | 0.00 | 0.00 | 0.00 | 91 | |
| 20260502110644 | 33 | 0 | 0.0 | 0.0 | 0.00 | 0.00 | 0.00 | 91 | 1015.5 |
| 20260502110045 | 33 | 0 | 0.0 | 0.0 | 0.00 | 0.00 | 0.00 | 90 | 1015.5 |
| 20260502105444 | 33 | 0 | 0.0 | 0.0 | 0.00 | 0.00 | 0.00 | 90 | 1015.4 |
| 20260502104845 | 33 | 0 | 0.0 | 0.0 | 0.00 | 0.00 | 0.00 | 89 | 1015.4 |
| 20260502104244 | 33 | 0 | 0.0 | 0.0 | 0.00 | 0.00 | 0.00 | 89 | 1015.4 |
| 20260502103644 | 33 | 0 | 0.0 | 0.0 | 0.00 | 0.00 | 0.00 | 88 | 1015.3 |
| 20260502103044 | 33 | 0 | 0.0 | 0.0 | 0.00 | 0.00 | 0.00 | 87 | 1015.3 |
| 20260502102444 | 33 | 0 | 0.0 | 0.0 | 0.00 | 0.00 | 0.00 | 85 | 1015.3 |
| 20260502101844 | 34 | 0 | 0.0 | 0.0 | 0.00 | 0.00 | 0.00 | 85 | 1015.3 |
| 20260502101244 | 34 | 0 | 0.0 | 0.0 | 0.00 | 0.00 | 0.00 | 84 | 1015.2 |
| 20260502100644 | 34 | 0 | 0.0 | 0.0 | 0.00 | 0.00 | 0.00 | 83 | 1015.1 |
| 20260502091244 | 36 | 0 | 0.0 | 0.0 | 0.00 | 0.00 | 0.00 | 79 | 1014.9 |
| 20260502071244 | 37 | 0 | 0.0 | 0.0 | 0.00 | 0.00 | 0.00 | 78 | 1014.5 |
| 20260502070644 | 37 | 214 | 0.0 | 1.7 | 0.00 | 0.00 | 0.00 | 77 | 1014.5 |
| 20260502070044 | 37 | 213 | 0.0 | 1.7 | 0.00 | 0.00 | 0.00 | 77 | 1014.5 |
| 20260502065444 | 37 | 206 | 0.0 | 1.7 | 0.00 | 0.00 | 0.00 | 75 | 1014.7 |
| 20260502064845 | 37 | 0 | 0.0 | 0.0 | 0.00 | 0.00 | 0.00 | 75 | 1014.7 |
| 20260502064244 | 37 | 111 | 0.0 | 1.7 | 0.00 | 0.00 | 0.00 | 74 | 1014.7 |
| 20260502063644 | 38 | 0 | 0.0 | 0.0 | 0.00 | 0.00 | 0.00 | 75 | 1014.8 |
| 20260502063044 | 38 | 119 | 0.0 | 1.7 | 0.00 | 0.00 | 0.00 | 75 | 1014.8 |
| 20260502062444 | 38 | 118 | 0.0 | 1.7 | 0.00 | 0.00 | 0.00 | 75 | |
| 20260502061844 | 38 | 0 | 0.0 | 0.0 | 0.00 | 0.00 | 0.00 | 75 | 1014.9 |
| 20260502061243 | 38 | 0 | 0.0 | 0.0 | 0.00 | 0.00 | 0.00 | 74 | 1014.8 |
| 20260502060644 | 38 | 0 | 0.0 | 0.0 | 0.00 | 0.00 | 0.00 | 72 | 1014.9 |
| 20260502060044 | 38 | 0 | 0.0 | 0.0 | 0.00 | 0.00 | 0.00 | 72 | 1014.9 |
| 20260502055444 | 38 | 63 | 0.0 | 1.7 | 0.00 | 0.00 | 0.00 | 72 | 1015.0 |
| 20260502054843 | 38 | 0 | 0.0 | 0.0 | 0.00 | 0.00 | 0.00 | 72 | 1014.9 |
| 20260502054244 | 38 | 124 | 0.0 | 1.7 | 0.00 | 0.00 | 0.00 | 72 | 1015.0 |
| 20260502053644 | 38 | 0 | 0.0 | 0.0 | 0.00 | 0.00 | 0.00 | 72 | 1015.0 |
| 20260502053044 | 38 | 0 | 0.0 | 0.0 | 0.00 | 0.00 | 0.00 | 72 | 1015.0 |
| 20260502052444 | 38 | 0 | 0.0 | 0.0 | 0.00 | 0.00 | 0.00 | 73 | 1014.9 |
| 20260502051844 | 38 | 0 | 0.0 | 0.0 | 0.00 | 0.00 | 0.00 | 73 | 1014.9 |
| 20260502051244 | 38 | 168 | 0.0 | 1.7 | 0.00 | 0.00 | 0.00 | 73 | |
| 20260502050644 | 39 | 0 | 0.0 | 0.0 | 0.00 | 0.00 | 0.00 | 73 | 1014.7 |
| 20260502050044 | 39 | 0 | 0.0 | 0.0 | 0.00 | 0.00 | 0.00 | 72 | 1014.7 |
| 20260502045444 | 39 | 169 | 0.0 | 1.7 | 0.00 | 0.00 | 0.00 | 71 | 1014.7 |
| 20260502044844 | 39 | 123 | 0.0 | 1.7 | 0.00 | 0.00 | 0.00 | 71 | 1014.5 |
| 20260502044243 | 39 | 121 | 0.0 | 1.7 | 0.00 | 0.00 | 0.00 | 70 | 1014.5 |
| 20260502043645 | 39 | 131 | 0.0 | 1.7 | 0.00 | 0.00 | 0.00 | 69 | 1014.5 |
| 20260502033643 | 40 | 55 | 0.0 | 4.3 | 0.00 | 0.00 | 0.00 | 64 | 1014.3 |
| 20260502033044 | 40 | 58 | 0.0 | 4.3 | 0.00 | 0.00 | 0.00 | 64 | 1014.2 |
| 20260502032444 | 40 | 72 | 0.9 | 4.3 | 0.00 | 0.00 | 0.00 | 62 | 1014.3 |
| 20260502031844 | 40 | 92 | 0.9 | 4.3 | 0.00 | 0.00 | 0.00 | 62 | 1014.2 |
| 20260502031243 | 40 | 67 | 1.7 | 10.4 | 0.00 | 0.00 | 0.00 | 61 | 1014.2 |
| 20260502030643 | 41 | 72 | 1.7 | 6.1 | 0.00 | 0.00 | 0.00 | 61 | 1014.1 |
| 20260502030044 | 41 | 66 | 1.7 | 6.1 | 0.00 | 0.00 | 0.00 | 61 | 1014.0 |
| 20260502025443 | 42 | 62 | 0.9 | 4.3 | 0.00 | 0.00 | 0.00 | 58 | 1014.0 |
| 20260502024844 | 42 | 52 | 1.7 | 10.4 | 0.00 | 0.00 | 0.00 | 53 | 1013.8 |
| 20260502024244 | 42 | 291 | 0.0 | 1.7 | 0.00 | 0.00 | 0.00 | 51 | 1013.7 |
| 20260502023644 | 42 | 57 | 0.0 | 6.1 | 0.00 | 0.00 | 0.00 | 52 | 1013.6 |
| 20260502023044 | 42 | 0 | 0.0 | 0.0 | 0.00 | 0.00 | 0.00 | 51 | 1013.7 |
| 20260502022444 | 43 | 274 | 0.0 | 1.7 | 0.00 | 0.00 | 0.00 | 51 | 1013.5 |
| 20260502021843 | 43 | 290 | 0.0 | 1.7 | 0.00 | 0.00 | 0.00 | 50 | 1013.4 |
| 20260502021243 | 43 | 278 | 0.0 | 4.3 | 0.00 | 0.00 | 0.00 | 51 | 1013.3 |
| 20260502020644 | 43 | 266 | 0.0 | 1.7 | 0.00 | 0.00 | 0.00 | 51 | 1013.3 |
| 20260502020043 | 43 | 274 | 0.0 | 4.3 | 0.00 | 0.00 | 0.00 | 51 | 1013.2 |
| 20260502015444 | 43 | 280 | 0.0 | 4.3 | 0.00 | 0.00 | 0.00 | 51 | 1013.1 |
| 20260502014844 | 43 | 295 | 0.0 | 4.3 | 0.00 | 0.00 | 0.00 | 51 | 1013.2 |
| 20260502014243 | 43 | 275 | 0.0 | 1.7 | 0.00 | 0.00 | 0.00 | 51 | 1013.1 |
| 20260502013643 | 43 | 267 | 0.0 | 4.3 | 0.00 | 0.00 | 0.00 | 51 | 1013.1 |
| 20260502013043 | 43 | 271 | 0.0 | 1.7 | 0.00 | 0.00 | 0.00 | 51 | 1013.1 |
| 20260502012443 | 43 | 274 | 0.0 | 1.7 | 0.00 | 0.00 | 0.00 | 52 | 1012.9 |
| 20260502011845 | 43 | 279 | 0.0 | 1.7 | 0.00 | 0.00 | 0.00 | 52 | 1012.9 |
| 20260502011244 | 43 | 284 | 0.0 | 1.7 | 0.00 | 0.00 | 0.00 | 51 | 1012.9 |
| 20260502010643 | 43 | 286 | 0.0 | 1.7 | 0.00 | 0.00 | 0.00 | 51 | 1012.9 |
| 20260502010044 | 43 | 273 | 0.0 | 1.7 | 0.00 | 0.00 | 0.00 | 51 | 1012.8 |
| 20260502005443 | 44 | 275 | 0.0 | 1.7 | 0.00 | 0.00 | 0.00 | 51 | 1012.7 |
| 20260502004844 | 44 | 270 | 0.0 | 1.7 | 0.00 | 0.00 | 0.00 | 51 | 1012.7 |
| 20260502004244 | 44 | 283 | 0.0 | 1.7 | 0.00 | 0.00 | 0.00 | 51 | 1012.7 |
| 20260502003643 | 44 | 278 | 0.0 | 1.7 | 0.00 | 0.00 | 0.00 | 51 | 1012.7 |
| 20260502003045 | 44 | 265 | 0.0 | 1.7 | 0.00 | 0.00 | 0.00 | 51 | 1012.6 |
| 20260502002445 | 44 | 277 | 0.0 | 4.3 | 0.00 | 0.00 | 0.00 | 50 | 1012.5 |
| 20260502001245 | 44 | 312 | 0.0 | 4.3 | 0.00 | 0.00 | 0.00 | 50 | 1012.4 |
| 20260502000647 | 44 | 319 | 0.0 | 4.3 | 0.00 | 0.00 | 0.00 | 50 | 1012.3 |
| 20260502000045 | 44 | 294 | 0.9 | 4.3 | 0.00 | 0.00 | 0.00 | 50 | 1012.4 |
| 20260501235444 | 44 | 310 | 0.0 | 1.7 | 0.00 | 0.00 | 0.00 | 50 | 1012.2 |
| 20260501234844 | 44 | 299 | 0.0 | 1.7 | 0.00 | 0.00 | 0.00 | 50 | 1012.2 |
| 20260501234245 | 44 | 290 | 0.9 | 4.3 | 0.00 | 0.00 | 0.00 | 49 | 1012.1 |
| 20260501233644 | 44 | 322 | 0.9 | 6.1 | 0.00 | 0.00 | 0.00 | 49 | 1012.2 |
| 20260501233045 | 45 | 273 | 1.7 | 6.1 | 0.00 | 0.00 | 0.00 | 49 | 1012.2 |
| 20260501232445 | 45 | 281 | 0.9 | 6.1 | 0.00 | 0.00 | 0.00 | 50 | 1012.1 |
| 20260501231844 | 45 | 284 | 0.9 | 4.3 | 0.00 | 0.00 | 0.00 | 50 | 1012.1 |
| 20260501231245 | 45 | 285 | 0.0 | 4.3 | 0.00 | 0.00 | 0.00 | 51 | 1012.2 |
| 20260501230644 | 45 | 303 | 0.9 | 4.3 | 0.00 | 0.00 | 0.00 | 51 | 1012.1 |
| 20260501230044 | 45 | 292 | 0.9 | 4.3 | 0.00 | 0.00 | 0.00 | 50 | 1012.2 |
| 20260501225444 | 45 | 283 | 1.7 | 6.1 | 0.00 | 0.00 | 0.00 | 49 | 1012.2 |
| 20260501224844 | 45 | 296 | 0.9 | 4.3 | 0.00 | 0.00 | 0.00 | 49 | 1012.1 |
| 20260501224245 | 45 | 308 | 0.0 | 4.3 | 0.00 | 0.00 | 0.00 | 49 | 1012.1 |
| 20260501223646 | 46 | 287 | 0.9 | 6.1 | 0.00 | 0.00 | 0.00 | 49 | 1012.1 |
| 20260501223045 | 46 | 282 | 0.0 | 6.1 | 0.00 | 0.00 | 0.00 | 50 | 1012.1 |
| 20260501222444 | 46 | 281 | 0.9 | 4.3 | 0.00 | 0.00 | 0.00 | 50 | 1011.8 |
| 20260501221844 | 46 | 337 | 0.9 | 6.1 | 0.00 | 0.00 | 0.00 | 50 | 1011.7 |
| 20260501221244 | 46 | 8 | 0.9 | 4.3 | 0.00 | 0.00 | 0.00 | 51 | 1011.8 |
| 20260501220644 | 46 | 281 | 0.0 | 4.3 | 0.00 | 0.00 | 0.00 | 51 | 1011.7 |
| 20260501220045 | 45 | 328 | 0.9 | 4.3 | 0.00 | 0.00 | 0.00 | 50 | 1011.7 |
| 20260501215444 | 46 | 271 | 0.9 | 8.7 | 0.00 | 0.00 | 0.00 | 46 | 1011.5 |
| 20260501214844 | 47 | 296 | 0.9 | 6.1 | 0.00 | 0.00 | 0.00 | 44 | 1011.4 |
| 20260501214244 | 47 | 272 | 0.9 | 6.1 | 0.00 | 0.00 | 0.00 | 42 | 1011.3 |
| 20260501213644 | 48 | 349 | 0.0 | 1.7 | 0.00 | 0.00 | 0.00 | 43 | 1011.3 |
| 20260501213045 | 48 | 274 | 0.9 | 6.1 | 0.00 | 0.00 | 0.00 | 43 | 1011.3 |
| 20260501212444 | 47 | 309 | 0.9 | 6.1 | 0.00 | 0.00 | 0.00 | 45 | 1011.2 |
| 20260501211845 | 47 | 344 | 0.0 | 4.3 | 0.00 | 0.00 | 0.00 | 46 | 1011.2 |
| 20260501211245 | 47 | 297 | 0.0 | 4.3 | 0.00 | 0.00 | 0.00 | 46 | 1011.1 |
| 20260501210644 | 47 | 286 | 0.9 | 4.3 | 0.00 | 0.00 | 0.00 | 46 | 1011.1 |
| 20260501210044 | 47 | 340 | 1.7 | 8.7 | 0.00 | 0.00 | 0.00 | 45 | 1011.1 |
| 20260501205444 | 47 | 280 | 0.9 | 4.3 | 0.00 | 0.00 | 0.00 | 45 | 1011.1 |
| 20260501204844 | 47 | 285 | 0.9 | 4.3 | 0.00 | 0.00 | 0.00 | 45 | 1011.1 |
| 20260501204244 | 47 | 301 | 0.9 | 6.1 | 0.00 | 0.00 | 0.00 | 44 | 1011.1 |
| 20260501203644 | 48 | 286 | 0.9 | 6.1 | 0.00 | 0.00 | 0.00 | 44 | 1011.0 |
| 20260501203044 | 48 | 266 | 0.0 | 4.3 | 0.00 | 0.00 | 0.00 | 44 | 1010.9 |
| 20260501202445 | 49 | 286 | 0.9 | 6.1 | 0.00 | 0.00 | 0.00 | 46 | 1011.0 |
| 20260501201846 | 48 | 275 | 0.9 | 1.7 | 0.00 | 0.00 | 0.00 | 46 | 1011.0 |
| 20260501201245 | 47 | 3 | 0.9 | 4.3 | 0.00 | 0.00 | 0.00 | 48 | 1011.0 |
| 20260501200644 | 47 | 305 | 0.0 | 1.7 | 0.00 | 0.00 | 0.00 | 48 | 1011.0 |
| 20260501200045 | 47 | 281 | 1.7 | 6.1 | 0.00 | 0.00 | 0.00 | 46 | 1011.1 |
| 20260501195444 | 48 | 275 | 1.7 | 4.3 | 0.00 | 0.00 | 0.00 | 43 | 1010.9 |
| 20260501194844 | 49 | 281 | 0.9 | 4.3 | 0.00 | 0.00 | 0.00 | 43 | 1010.8 |
| 20260501194245 | 48 | 269 | 0.9 | 4.3 | 0.00 | 0.00 | 0.00 | 43 | 1010.7 |
| 20260501193645 | 48 | 359 | 0.9 | 4.3 | 0.00 | 0.00 | 0.00 | 43 | 1010.8 |
| 20260501193045 | 48 | 267 | 1.7 | 4.3 | 0.00 | 0.00 | 0.00 | 43 | 1010.9 |
| 20260501192444 | 47 | 303 | 0.9 | 4.3 | 0.00 | 0.00 | 0.00 | 45 | 1010.8 |
| 20260501191844 | 47 | 277 | 0.9 | 6.1 | 0.00 | 0.00 | 0.00 | 45 | 1010.9 |
| 20260501191244 | 47 | 295 | 0.9 | 4.3 | 0.00 | 0.00 | 0.00 | 44 | 1010.8 |
| 20260501190645 | 48 | 298 | 0.0 | 4.3 | 0.00 | 0.00 | 0.00 | 44 | 1010.7 |
| 20260501190045 | 48 | 318 | 1.7 | 6.1 | 0.00 | 0.00 | 0.00 | 44 | 1010.7 |
| 20260501185444 | 48 | 7 | 1.7 | 6.1 | 0.00 | 0.00 | 0.00 | 45 | 1010.6 |
| 20260501184844 | 48 | 18 | 1.7 | 4.3 | 0.00 | 0.00 | 0.00 | 45 | 1010.5 |
| 20260501184245 | 47 | 344 | 0.9 | 6.1 | 0.00 | 0.00 | 0.00 | 46 | 1010.5 |
| 20260501183645 | 47 | 355 | 0.9 | 4.3 | 0.00 | 0.00 | 0.00 | 45 | 1010.5 |
| 20260501183045 | 48 | 322 | 0.9 | 4.3 | 0.00 | 0.00 | 0.00 | 45 | 1010.5 |
| 20260501182445 | 48 | 357 | 0.9 | 4.3 | 0.00 | 0.00 | 0.00 | 43 | 1010.5 |
| 20260501181844 | 48 | 341 | 1.7 | 6.1 | 0.00 | 0.00 | 0.00 | 43 | 1010.4 |
| 20260501181245 | 48 | 359 | 0.9 | 6.1 | 0.00 | 0.00 | 0.00 | 44 | 1010.4 |
| 20260501180644 | 47 | 20 | 0.9 | 4.3 | 0.00 | 0.00 | 0.00 | 43 | 1010.4 |
| 20260501180045 | 48 | 10 | 2.6 | 10.4 | 0.00 | 0.00 | 0.00 | 42 | 1010.4 |
| 20260501175444 | 49 | 309 | 1.7 | 6.1 | 0.00 | 0.00 | 0.00 | 40 | 1010.2 |
| 20260501174844 | 48 | 351 | 0.9 | 6.1 | 0.00 | 0.00 | 0.00 | 39 | 1010.2 |
| 20260501174244 | 49 | 347 | 1.7 | 8.7 | 0.00 | 0.00 | 0.00 | 39 | 1010.2 |
| 20260501173644 | 49 | 273 | 0.9 | 4.3 | 0.00 | 0.00 | 0.00 | 39 | 1010.2 |
| 20260501173045 | 49 | 300 | 0.9 | 6.1 | 0.00 | 0.00 | 0.00 | 39 | 1010.0 |
| 20260501172444 | 48 | 359 | 0.0 | 4.3 | 0.00 | 0.00 | 0.00 | 41 | 1010.3 |
| 20260501171844 | 48 | 340 | 0.9 | 6.1 | 0.00 | 0.00 | 0.00 | 41 | 1010.3 |
| 20260501171244 | 48 | 338 | 0.9 | 4.3 | 0.00 | 0.00 | 0.00 | 41 | 1010.3 |
| 20260501170645 | 48 | 330 | 0.9 | 4.3 | 0.00 | 0.00 | 0.00 | 40 | 1010.2 |
| 20260501170045 | 49 | 316 | 0.9 | 4.3 | 0.00 | 0.00 | 0.00 | 41 | 1010.2 |
| 20260501165444 | 49 | 50 | 0.0 | 4.3 | 0.00 | 0.00 | 0.00 | 44 | 1010.2 |
| 20260501164844 | 48 | 23 | 0.0 | 1.7 | 0.00 | 0.00 | 0.00 | 44 | 1010.3 |
| 20260501164244 | 47 | 344 | 0.0 | 4.3 | 0.00 | 0.00 | 0.00 | 45 | 1010.4 |
| 20260501163644 | 47 | 357 | 0.0 | 4.3 | 0.00 | 0.00 | 0.00 | 47 | 1010.4 |
| 20260501163045 | 47 | 337 | 0.9 | 6.1 | 0.00 | 0.00 | 0.00 | 48 | 1010.4 |
| 20260501161844 | 47 | 55 | 0.0 | 4.3 | 0.00 | 0.00 | 0.00 | 52 | 1010.4 |
| 20260501161244 | 47 | 75 | 1.7 | 8.7 | 0.00 | 0.00 | 0.00 | 50 | 1010.4 |
| 20260501160644 | 47 | 33 | 0.9 | 4.3 | 0.00 | 0.00 | 0.00 | 52 | 1010.4 |
| 20260501160045 | 47 | 284 | 0.0 | 4.3 | 0.00 | 0.00 | 0.00 | 54 | 1010.5 |
| 20260501155444 | 46 | 348 | 0.0 | 4.3 | 0.00 | 0.00 | 0.00 | 54 | 1010.5 |
| 20260501154844 | 46 | 17 | 0.0 | 4.3 | 0.00 | 0.00 | 0.00 | 56 | 1010.6 |
| 20260501154244 | 46 | 51 | 1.7 | 6.1 | 0.00 | 0.00 | 0.00 | 55 | 1010.6 |